Tupelo, MS

3:49 AM CDT on June 24, 2017 (GMT -0500)
Tupelo Regional

Weather History for KTUP - April, 2014

Change the Weather History Date:

Sunday, April 27, 2014

  Actual Average Record
Temperature  
Mean Temperature 67 °F 65 °F  
Max Temperature 71 °F 77 °F 91 °F (1987)
Min Temperature 62 °F 54 °F 36 °F (1976)
Degree Days  
Heating Degree Days 0 3  
Month to date heating degree days 138 140  
Since 1 July heating degree days 3428 2926  
Cooling Degree Days 2 3  
Month to date cooling degree days 30 50  
Year to date cooling degree days 30 66  
Growing Degree Days 16 (Base 50)    
Moisture  
Dew Point 64 °F    
Average Humidity 81    
Maximum Humidity 93    
Minimum Humidity 68    
Precipitation  
Precipitation 0.64 in 0.17 in 2.85 in (2011)
Month to date precipitation 5.56 4.25  
Year to date precipitation 14.73 18.51  
Snow  
Snow 0.00 in 0.00 in - ()
Month to date snowfall 0.0 0.0  
Since 1 July snowfall 0.5 2.1  
Snow Depth 0.00 in    
Sea Level Pressure  
Sea Level Pressure 29.82 in    
Wind  
Wind Speed 10 mph (South)    
Max Wind Speed 21 mph    
Max Gust Speed 26 mph    
Visibility 8 miles    
Events Rain , Thunderstorm    
T = Trace of Precipitation, MM = Missing Value Source: NWS Daily Summary

Daily Weather History Graph

Daily Weather History Graph

Search for Another Location

Airport or City:

Trip Planner

Search our weather history database for the weather conditions in past years. The results will help you decide how hot, cold, wet, or windy it might be!

Date:

Astronomy

Apr. 27, 2014 Rise Set
Actual Time 6:09 AM CDT 7:36 PM CDT
Civil Twilight 5:43 AM CDT 8:02 PM CDT
Nautical Twilight 5:11 AM CDT 8:34 PM CDT
Astronomical Twilight 4:38 AM CDT 9:07 PM CDT
Moon 5:04 AM CDT (4/27) 6:13 PM CDT (4/27)
Length of Visible Light 14h 19m
Length of Day
13h 26m
Waning Crescent, 3% of the Moon is Illuminated
Apr 27
Waning Crescent
Apr 29
New
May 6
First Quarter
May 14
Full
May 21
Last Quarter

Hourly Weather History & Observations

Time (CDT) Temp. Dew Point Humidity Pressure Visibility Wind Dir Wind Speed Gust Speed Precip Events Conditions
12:53 AM 66.0 °F 55.0 °F 68% 29.87 in 10.0 mi SSW 4.6 mph - N/A   Clear
1:53 AM 66.0 °F 55.0 °F 68% 29.86 in 10.0 mi SSW 4.6 mph - N/A   Clear
2:53 AM 64.9 °F 55.9 °F 73% 29.85 in 10.0 mi SSW 5.8 mph - N/A   Clear
3:53 AM 64.9 °F 57.0 °F 75% 29.85 in 10.0 mi SSW 4.6 mph - N/A   Clear
4:53 AM 62.1 °F 57.0 °F 84% 29.85 in 10.0 mi South 6.9 mph - N/A   Partly Cloudy
5:53 AM 66.0 °F 60.1 °F 81% 29.85 in 10.0 mi SSE 5.8 mph - N/A   Scattered Clouds
6:53 AM 66.0 °F 62.1 °F 87% 29.85 in 10.0 mi South 10.4 mph - N/A   Clear
7:00 AM 66.0 °F 62.1 °F 87% 29.85 in 9.0 mi South 10.4 mph - N/A   Scattered Clouds
7:08 AM 66.9 °F 63.0 °F 87% 29.86 in 9.0 mi South 10.4 mph - N/A   Mostly Cloudy
7:53 AM 69.1 °F 64.0 °F 84% 29.85 in 8.0 mi South 8.1 mph - N/A   Scattered Clouds
8:03 AM 69.1 °F 64.0 °F 84% 29.85 in 8.0 mi South 9.2 mph 19.6 mph N/A   Mostly Cloudy
8:12 AM 69.1 °F 64.0 °F 84% 29.85 in 8.0 mi South 9.2 mph - N/A   Scattered Clouds
8:26 AM 69.1 °F 64.9 °F 87% 29.86 in 7.0 mi SSW 10.4 mph - N/A   Mostly Cloudy
8:50 AM 68.0 °F 64.4 °F 88% 29.88 in 6.0 mi SSW 9.2 mph - N/A Thunderstorm Overcast
8:53 AM 68.0 °F 64.9 °F 90% 29.88 in 6.0 mi SSW 10.4 mph - 0.00 in Rain , Thunderstorm Light Rain
8:59 AM 69.1 °F 64.9 °F 87% 29.89 in 6.0 mi SSW 13.8 mph 18.4 mph 0.00 in Rain Light Rain
9:09 AM 69.1 °F 64.9 °F 87% 29.89 in 5.0 mi SW 16.1 mph - 0.01 in Rain , Thunderstorm Light Rain
9:20 AM 68.0 °F 64.9 °F 90% 29.89 in 5.0 mi SSW 11.5 mph - 0.01 in Rain , Thunderstorm Light Thunderstorms and Rain
9:29 AM 68.0 °F 64.9 °F 90% 29.89 in 4.0 mi SW 11.5 mph - 0.02 in Rain Light Rain
9:43 AM 68.0 °F 66.0 °F 93% 29.89 in 3.0 mi SSW 11.5 mph - 0.05 in Rain , Thunderstorm Rain
9:46 AM 68.0 °F 66.0 °F 93% 29.89 in 2.5 mi SSW 10.4 mph - 0.05 in Rain , Thunderstorm Thunderstorms and Rain
9:53 AM 68.0 °F 66.0 °F 93% 29.88 in 3.0 mi SSW 11.5 mph - 0.08 in Rain , Thunderstorm Light Thunderstorms and Rain
10:18 AM 66.9 °F 64.9 °F 93% 29.90 in 3.0 mi SSW 13.8 mph - 0.08 in Rain Rain
10:46 AM 66.9 °F 64.0 °F 90% 29.89 in 4.0 mi South 8.1 mph - 0.17 in Rain , Thunderstorm Rain
10:53 AM 68.0 °F 64.0 °F 87% 29.88 in 6.0 mi South 8.1 mph - 0.18 in Rain , Thunderstorm Light Rain
11:01 AM 68.0 °F 64.9 °F 90% 29.88 in 8.0 mi South 6.9 mph - 0.01 in Rain Light Rain
11:35 AM 68.0 °F 66.0 °F 93% 29.88 in 9.0 mi SSE 9.2 mph - 0.02 in   Scattered Clouds
11:53 AM 68.0 °F 64.9 °F 90% 29.89 in 8.0 mi South 6.9 mph - 0.03 in Rain Light Rain
12:23 PM 68.0 °F 64.9 °F 90% 29.87 in 2.5 mi SSE 11.5 mph - 0.10 in Rain Rain
12:29 PM 68.0 °F 64.9 °F 90% 29.86 in 4.0 mi SE 9.2 mph - 0.11 in Rain , Thunderstorm Rain
12:44 PM 68.0 °F 64.9 °F 90% 29.86 in 5.0 mi South 6.9 mph - 0.13 in Rain Light Rain
12:46 PM 68.0 °F 64.9 °F 90% 29.86 in 5.0 mi South 8.1 mph - 0.14 in Rain , Thunderstorm Light Rain
12:53 PM 68.0 °F 64.9 °F 90% 29.84 in 6.0 mi SSE 12.7 mph - 0.14 in Rain , Thunderstorm Light Rain
1:25 PM 68.0 °F 64.9 °F 90% 29.81 in 8.0 mi SSE 9.2 mph - 0.02 in Rain Light Rain
1:35 PM 68.0 °F 64.9 °F 90% 29.80 in 8.0 mi South 11.5 mph - 0.02 in   Overcast
1:53 PM 68.0 °F 66.0 °F 93% 29.78 in 9.0 mi SSE 11.5 mph - 0.03 in   Overcast
2:33 PM 68.0 °F 64.9 °F 90% 29.76 in 10.0 mi South 17.3 mph 26.5 mph N/A   Overcast
2:42 PM 68.0 °F 64.0 °F 87% 29.76 in 10.0 mi SSE 15.0 mph 24.2 mph N/A Thunderstorm Overcast
2:53 PM 68.0 °F 64.0 °F 87% 29.80 in 10.0 mi SSW 10.4 mph 25.3 mph N/A Thunderstorm Thunderstorm
3:06 PM 66.9 °F 63.0 °F 87% 29.77 in 2.0 mi South 15.0 mph 23.0 mph 0.04 in Rain , Thunderstorm Heavy Thunderstorms and Rain
3:12 PM 66.9 °F 63.0 °F 87% 29.76 in 2.0 mi South 16.1 mph 25.3 mph 0.14 in Rain , Thunderstorm Light Thunderstorms and Rain
3:15 PM 66.9 °F 63.0 °F 87% 29.74 in 4.0 mi SSE 17.3 mph 25.3 mph 0.14 in Rain , Thunderstorm Light Thunderstorms and Rain
3:25 PM 66.0 °F 64.0 °F 93% 29.74 in 9.0 mi SSE 12.7 mph 21.9 mph 0.16 in Rain , Thunderstorm Light Thunderstorms and Rain
3:40 PM 66.9 °F 64.0 °F 90% 29.74 in 10.0 mi SE 6.9 mph - 0.16 in Thunderstorm Overcast
3:48 PM 66.2 °F 64.4 °F 94% 29.75 in 10.0 mi ENE 5.8 mph - 0.16 in   Overcast
3:53 PM 66.9 °F 63.0 °F 87% 29.75 in 10.0 mi NNE 9.2 mph - 0.16 in   Overcast
3:59 PM 66.0 °F 64.0 °F 93% 29.76 in 10.0 mi NE 9.2 mph - 0.01 in Rain , Thunderstorm Light Rain
4:53 PM 66.9 °F 64.0 °F 90% 29.77 in 10.0 mi East 8.1 mph - 0.01 in   Overcast
5:12 PM 68.0 °F 64.0 °F 87% 29.77 in 10.0 mi East 10.4 mph 23.0 mph N/A   Overcast
5:53 PM 68.0 °F 64.0 °F 87% 29.76 in 10.0 mi East 11.5 mph - N/A   Overcast
6:53 PM 68.0 °F 64.0 °F 87% 29.75 in 10.0 mi SE 13.8 mph - N/A   Overcast
7:53 PM 68.0 °F 64.0 °F 87% 29.72 in 10.0 mi SE 11.5 mph - N/A   Scattered Clouds
8:53 PM 69.1 °F 64.9 °F 87% 29.69 in 10.0 mi SSE 16.1 mph 24.2 mph N/A   Partly Cloudy
9:53 PM 70.0 °F 64.9 °F 84% 29.72 in 10.0 mi South 12.7 mph - N/A   Mostly Cloudy
10:53 PM 71.1 °F 64.9 °F 81% 29.70 in 9.0 mi SSE 13.8 mph 23.0 mph N/A Thunderstorm Mostly Cloudy
11:21 PM 70.0 °F 66.0 °F 87% 29.71 in 10.0 mi South 16.1 mph - 0.01 in   Mostly Cloudy
11:53 PM 70.0 °F 66.0 °F 87% 29.70 in 10.0 mi South 12.7 mph 23.0 mph 0.01 in   Partly Cloudy